STARLINK-1848, 46740

Orbit data source: Space-Track

STARLINK-1848, 46740 is a payload satellite owned by SpaceX/Seattle (US) in LEO that was launched on Sat, 24 Oct 2020 UTC via an FALCON 9 launch vehicle from the Air Force Eastern Test Range (AFETR). Payload-class satellites include a variety of spacecraft equipped with specific instruments for various scientific and technological missions. These include communications satellites like Starlink; space stations such as the ISS; scientific satellites like the Hubble; Earth observation satellites from companies like Planet Labs, Umbra, and HawkEye 360; GPS; miniature CubeSats for education and research; and military/defense satellites.

Loading next visibility...
Identifier
46740, 2020-074B
Orbit
LEO
Country
Flag of USUS
Related business
Manufacturer
SpaceX/Seattle
Mission
Partially operational Commercial Communications
Bus & Motor
STARLINK, Unknown motor
Mass
260 kg wet, ~248 kg dry
Launch date (UTC)
2020-10-24 (5 years ago)
Launch vehicle
FALCON 9
Launch site
Air Force Eastern Test Range (AFETR)
Object type
Payload
Rocket body
Debris
Shape & HBR
Box + 1 Pan, 10.1 m
Radar Cross Section
13.562 m², Large (>1 m²)

Expand to show TLE details & history
Last TLE update: 5 hours ago

TLE from 5 hours ago
0 STARLINK-1848
1 46740U 20074B   25298.98047321  .00040264  00000-0  84084-3 0  9997
2 46740  53.0502 196.0038 0012584  81.5714 278.6718 15.45067218276510
Epoch: 2025-10-25T23:31Z
TLE epoch observation values (Epoch: 2025-10-25T23:31:52.885Z)
Latitude
0.00001°
Longitude
168.43021°
Altitude
430.793 km
Speed
7.655 km/s
True Right ascension
13h 04m 00s
True Declination
0° 00' 00"
Sunlit
Object was in daylight at epoch
Visualization orbit readout
Latitude
Unknown
Longitude
Unknown
Altitude
Unknown
Speed
Unknown
Apparent Right ascension
Unknown
Apparent Declination
Unknown
Sunlit
N/A
Visualization observer readout
Local Sidereal Time
23:46:20
Azimuth
Unknown
Elevation
Unknown
Doppler factor
Unknown
Orbital elements
Apogee altitude
440.026 km
Perigee altitude
422.887 km
Semi-major axis
6,809.593 km
Eccentricity
0.00126
Inclination
53.0502°
RAAN
196.0038°
Arg. of periapsis
81.5714°
True anomaly
278.52921°
Mean anomaly
278.6718°
Eccentric anomaly
278.60051°
Mean motion
3.86244 °/min
Orbital period
93.21 mins
BSTAR
0.00084084
Loading maneuver chart data...
Computing Atmospheric mass density...

Documentation

Showing up to 5 results
|